| time (UTC) | temp F | wind direction | speed knots | gust knots | rain 1hr in | rain 24hr in | rain mn in | humidity % | barometer mb |
| 20260510192539 | 86 | 288 | 6.1 | 17.4 | 0.00 | 0.00 | 0.00 | 64 | 1010.5 |
| 20260510192039 | 86 | 141 | 11.3 | 17.4 | 0.00 | 0.00 | 0.00 | 65 | 1010.6 |
| 20260510191554 | 87 | 104 | 8.7 | 14.8 | 0.00 | 0.00 | 0.00 | 64 | 1010.7 |
| 20260510191040 | 87 | 82 | 5.2 | 14.8 | 0.00 | 0.00 | 0.00 | 63 | 1010.7 |
| 20260510190540 | 87 | 116 | 6.1 | 13.9 | 0.00 | 0.00 | 0.00 | 61 | 1010.8 |
| 20260510190057 | 88 | 128 | 4.3 | 18.2 | 0.00 | 0.00 | 0.00 | 61 | 1010.8 |
| 20260510185543 | 87 | 101 | 5.2 | 18.2 | 0.00 | 0.00 | 0.00 | 61 | 1010.9 |
| 20260510185039 | 87 | 6 | 7.8 | 16.5 | 0.00 | 0.00 | 0.00 | 62 | 1010.9 |
| 20260510184549 | 86 | 169 | 7.0 | 16.5 | 0.00 | 0.00 | 0.00 | 63 | 1011.0 |
| 20260510184039 | 86 | 309 | 7.8 | 16.5 | 0.00 | 0.00 | 0.00 | 63 | 1011.1 |
| 20260510183540 | 86 | 113 | 6.1 | 15.6 | 0.00 | 0.00 | 0.00 | 62 | 1011.1 |
| 20260510183049 | 86 | 77 | 7.8 | 15.6 | 0.00 | 0.00 | 0.00 | 61 | 1011.0 |
| 20260510182540 | 86 | 61 | 4.3 | 17.4 | 0.00 | 0.00 | 0.00 | 64 | 1011.1 |
| 20260510182039 | 85 | 257 | 6.1 | 17.4 | 0.00 | 0.00 | 0.00 | 63 | 1011.2 |
| 20260510181603 | 85 | 99 | 7.8 | 17.4 | 0.00 | 0.00 | 0.00 | 64 | 1011.3 |
| 20260510181040 | 85 | 356 | 8.7 | 14.8 | 0.00 | 0.00 | 0.00 | 66 | 1011.3 |
| 20260510180540 | 85 | 135 | 7.8 | 13.9 | 0.00 | 0.00 | 0.00 | 66 | 1011.4 |
| 20260510180057 | 85 | 25 | 4.3 | 13.9 | 0.00 | 0.00 | 0.00 | 65 | 1011.4 |
| 20260510175539 | 84 | 292 | 6.1 | 14.8 | 0.00 | 0.00 | 0.00 | 66 | 1011.5 |
| 20260510175039 | 85 | 193 | 7.8 | 14.8 | 0.00 | 0.00 | 0.00 | 67 | 1011.5 |
| 20260510174603 | 85 | 340 | 5.2 | 14.8 | 0.00 | 0.00 | 0.00 | 68 | 1011.5 |
| 20260510174041 | 84 | 113 | 7.0 | 13.9 | 0.00 | 0.00 | 0.00 | 67 | 1011.5 |
| 20260510173540 | 84 | 357 | 7.0 | 15.6 | 0.00 | 0.00 | 0.00 | 70 | 1011.6 |
| 20260510173050 | 84 | 352 | 4.3 | 16.5 | 0.00 | 0.00 | 0.00 | 69 | 1011.5 |
| 20260510172540 | 84 | 110 | 6.1 | 16.5 | 0.00 | 0.00 | 0.00 | 68 | 1011.6 |
| 20260510172039 | 84 | 141 | 5.2 | 14.8 | 0.00 | 0.00 | 0.00 | 69 | 1011.6 |
| 20260510171617 | 84 | 126 | 7.0 | 13.9 | 0.00 | 0.00 | 0.00 | 70 | 1011.5 |
| 20260510171042 | 84 | 63 | 5.2 | 13.9 | 0.00 | 0.00 | 0.00 | 70 | 1011.5 |
| 20260510170543 | 84 | 164 | 6.1 | 15.6 | 0.00 | 0.00 | 0.00 | 69 | 1011.3 |
| 20260510170051 | 84 | 139 | 7.0 | 15.6 | 0.00 | 0.00 | 0.00 | 70 | 1011.4 |
| 20260510165540 | 84 | 112 | 4.3 | 16.5 | 0.00 | 0.00 | 0.00 | 69 | 1011.4 |
| 20260510165040 | 84 | 87 | 5.2 | 16.5 | 0.00 | 0.00 | 0.00 | 69 | 1011.4 |
| 20260510164559 | 84 | 113 | 5.2 | 13.0 | 0.00 | 0.00 | 0.00 | 70 | 1011.3 |
| 20260510164039 | 84 | 74 | 7.0 | 13.0 | 0.00 | 0.00 | 0.00 | 69 | 1011.3 |
| 20260510163539 | 84 | 134 | 6.1 | 13.9 | 0.00 | 0.00 | 0.00 | 70 | 1011.3 |
| 20260510163057 | 84 | 315 | 2.6 | 15.6 | 0.00 | 0.00 | 0.00 | 70 | 1011.2 |
| 20260510162539 | 83 | 81 | 8.7 | 15.6 | 0.00 | 0.00 | 0.00 | 69 | 1011.2 |
| 20260510162039 | 84 | 94 | 7.0 | 12.2 | 0.00 | 0.00 | 0.00 | 69 | 1011.2 |
| 20260510161548 | 84 | 138 | 5.2 | 11.3 | 0.00 | 0.00 | 0.00 | 66 | 1011.2 |
| 20260510161040 | 85 | 346 | 1.7 | 7.0 | 0.00 | 0.00 | 0.00 | 67 | 1011.2 |
| 20260510160540 | 84 | 245 | 2.6 | 7.8 | 0.00 | 0.00 | 0.00 | 67 | 1011.2 |
| 20260510160050 | 84 | 353 | 2.6 | 7.8 | 0.00 | 0.00 | 0.00 | 69 | 1011.2 |
| 20260510155539 | 84 | 172 | 1.7 | 7.0 | 0.00 | 0.00 | 0.00 | 69 | 1011.1 |
| 20260510155040 | 84 | 276 | 2.6 | 9.6 | 0.00 | 0.00 | 0.00 | 70 | 1011.2 |
| 20260510154544 | 83 | 123 | 1.7 | 9.6 | 0.00 | 0.00 | 0.00 | 71 | 1011.2 |
| 20260510154040 | 84 | 108 | 1.7 | 7.0 | 0.00 | 0.00 | 0.00 | 69 | 1011.1 |
| 20260510153539 | 84 | 193 | 0.0 | 7.0 | 0.00 | 0.00 | 0.00 | 70 | 1011.1 |
| 20260510153058 | 83 | 31 | 0.9 | 7.0 | 0.00 | 0.00 | 0.00 | 70 | 1011.0 |
| 20260510152539 | 82 | 330 | 0.0 | 5.2 | 0.00 | 0.00 | 0.00 | 73 | 1011.0 |
| 20260510152039 | 82 | 116 | 0.0 | 5.2 | 0.00 | 0.00 | 0.00 | 73 | 1010.8 |
| 20260510151546 | 82 | 143 | 1.7 | 6.1 | 0.00 | 0.00 | 0.00 | 75 | 1010.8 |
| 20260510151039 | 81 | 181 | 0.9 | 7.8 | 0.00 | 0.00 | 0.00 | 75 | 1010.7 |
| 20260510150540 | 81 | 147 | 1.7 | 7.8 | 0.00 | 0.00 | 0.00 | 76 | 1010.8 |
| 20260510150052 | 81 | 96 | 1.7 | 7.8 | 0.00 | 0.00 | 0.00 | 75 | 1010.8 |
| 20260510145539 | 82 | 288 | 0.9 | 4.3 | 0.00 | 0.24 | 0.00 | 74 | 1010.8 |
| 20260510145040 | 81 | 38 | 0.9 | 4.3 | 0.00 | 0.24 | 0.00 | 76 | 1010.7 |
| 20260510144611 | 81 | 1 | 0.9 | 4.3 | 0.00 | 0.24 | 0.00 | 76 | 1010.7 |
| 20260510144040 | 80 | 285 | 0.9 | 4.3 | 0.00 | 0.24 | 0.00 | 77 | 1010.6 |
| 20260510143540 | 80 | 0 | 0.0 | 1.7 | 0.00 | 0.24 | 0.00 | 76 | 1010.6 |
| 20260510143051 | 80 | 84 | 0.0 | 2.6 | 0.00 | 0.24 | 0.00 | 77 | 1010.6 |
| 20260510142540 | 79 | 0 | 0.0 | 4.3 | 0.00 | 0.24 | 0.00 | 77 | 1010.8 |
| 20260510142041 | 79 | 359 | 0.0 | 4.3 | 0.00 | 0.24 | 0.00 | 78 | 1010.8 |
| 20260510141547 | 78 | 0 | 0.0 | 3.5 | 0.00 | 0.24 | 0.00 | 78 | 1010.7 |
| 20260510141041 | 77 | 316 | 0.0 | 3.5 | 0.00 | 0.24 | 0.00 | 79 | 1010.6 |
| 20260510140540 | 77 | 76 | 0.9 | 3.5 | 0.00 | 0.24 | 0.00 | 79 | 1010.7 |
| 20260510140049 | 77 | 127 | 0.9 | 3.5 | 0.00 | 0.24 | 0.00 | 80 | 1010.7 |
| 20260510135542 | 77 | 0 | 0.0 | 1.7 | 0.00 | 0.24 | 0.00 | 81 | 1010.7 |
| 20260510135042 | 76 | 234 | 0.0 | 0.9 | 0.00 | 0.24 | 0.00 | 82 | 1010.6 |
| 20260510134552 | 75 | 0 | 0.0 | 0.9 | 0.00 | 0.24 | 0.00 | 83 | 1010.7 |
| 20260510134040 | 75 | 337 | 0.0 | 0.9 | 0.00 | 0.24 | 0.00 | 83 | 1010.5 |
| 20260510133541 | 75 | 0 | 0.0 | 1.7 | 0.00 | 0.24 | 0.00 | 81 | 1010.4 |
| 20260510133049 | 75 | 0 | 0.0 | 1.7 | 0.00 | 0.24 | 0.00 | 82 | 1010.3 |
| 20260510132542 | 74 | 0 | 0.0 | 0.9 | 0.00 | 0.24 | 0.00 | 83 | 1010.3 |
| 20260510132041 | 74 | 0 | 0.0 | 0.9 | 0.00 | 0.24 | 0.00 | 83 | 1010.3 |
| 20260510131545 | 73 | 0 | 0.0 | 1.7 | 0.00 | 0.24 | 0.00 | 83 | 1010.1 |
| 20260510131042 | 73 | 0 | 0.0 | 1.7 | 0.00 | 0.24 | 0.00 | 83 | 1010.1 |
| 20260510130540 | 73 | 0 | 0.0 | 0.0 | 0.00 | 0.24 | 0.00 | 83 | 1010.1 |
| 20260510130048 | 73 | 0 | 0.0 | 0.9 | 0.00 | 0.24 | 0.00 | 83 | 1010.0 |
| 20260510125539 | 73 | 0 | 0.0 | 0.9 | 0.00 | 0.24 | 0.00 | 82 | 1009.9 |
| 20260510125039 | 73 | 0 | 0.0 | 1.7 | 0.00 | 0.24 | 0.00 | 82 | 1009.7 |
| 20260510124547 | 73 | 0 | 0.0 | 1.7 | 0.00 | 0.24 | 0.00 | 83 | 1009.7 |
| 20260510124039 | 72 | 0 | 0.0 | 0.9 | 0.00 | 0.24 | 0.00 | 83 | 1009.8 |
| 20260510123540 | 72 | 34 | 0.0 | 0.9 | 0.00 | 0.24 | 0.00 | 82 | 1009.8 |
| 20260510123052 | 72 | 0 | 0.0 | 0.9 | 0.00 | 0.24 | 0.00 | 84 | 1009.8 |
| 20260510122540 | 71 | 0 | 0.0 | 0.9 | 0.00 | 0.24 | 0.00 | 85 | 1009.8 |
| 20260510122040 | 71 | 0 | 0.0 | 0.9 | 0.00 | 0.24 | 0.00 | 85 | 1009.8 |
| 20260510121545 | 70 | 0 | 0.0 | 0.9 | 0.00 | 0.24 | 0.00 | 85 | 1009.8 |
| 20260510121040 | 70 | 0 | 0.0 | 0.9 | 0.00 | 0.24 | 0.00 | 87 | 1009.5 |
| 20260510120541 | 70 | 0 | 0.0 | 0.9 | 0.00 | 0.24 | 0.00 | 87 | 1009.5 |
| 20260510120043 | 69 | 0 | 0.0 | 1.7 | 0.00 | 0.24 | 0.00 | 88 | 1009.6 |
| 20260510115540 | 69 | 0 | 0.0 | 1.7 | 0.00 | 0.24 | 0.00 | 88 | 1009.5 |
| 20260510115040 | 69 | 103 | 0.9 | 4.3 | 0.00 | 0.24 | 0.00 | 88 | 1009.4 |
| 20260510114551 | 69 | 110 | 1.7 | 4.3 | 0.00 | 0.24 | 0.00 | 88 | 1009.4 |
| 20260510114040 | 69 | 114 | 3.5 | 4.3 | 0.00 | 0.24 | 0.00 | 88 | 1009.5 |
| 20260510113539 | 69 | 115 | 3.5 | 5.2 | 0.00 | 0.24 | 0.00 | 87 | 1009.5 |
| 20260510113054 | 69 | 108 | 4.3 | 6.1 | 0.00 | 0.24 | 0.00 | 87 | 1009.4 |
| 20260510112540 | 69 | 150 | 4.3 | 6.1 | 0.00 | 0.24 | 0.00 | 87 | 1009.5 |
| 20260510112040 | 69 | 91 | 4.3 | 6.1 | 0.00 | 0.24 | 0.00 | 86 | 1009.5 |
| 20260510111546 | 69 | 137 | 4.3 | 5.2 | 0.00 | 0.24 | 0.00 | 86 | 1009.5 |
| 20260510111039 | 69 | 136 | 4.3 | 5.2 | 0.00 | 0.24 | 0.00 | 86 | 1009.6 |
| 20260510110539 | 69 | 118 | 4.3 | 6.1 | 0.00 | 0.24 | 0.00 | 86 | 1009.7 |
| 20260510110056 | 69 | 100 | 4.3 | 6.1 | 0.00 | 0.24 | 0.00 | 86 | 1009.7 |
| 20260510105539 | 69 | 112 | 3.5 | 6.1 | 0.00 | 0.24 | 0.00 | 85 | 1009.8 |
| 20260510105040 | 70 | 100 | 4.3 | 6.1 | 0.00 | 0.24 | 0.00 | 85 | 1009.7 |
| 20260510104548 | 70 | 110 | 3.5 | 5.2 | 0.00 | 0.24 | 0.00 | 85 | 1009.7 |
| 20260510104039 | 70 | 66 | 2.6 | 4.3 | 0.00 | 0.24 | 0.00 | 85 | 1009.7 |
| 20260510103539 | 70 | 77 | 3.5 | 4.3 | 0.00 | 0.24 | 0.00 | 85 | 1009.6 |
| 20260510103052 | 70 | 69 | 2.6 | 5.2 | 0.00 | 0.24 | 0.00 | 85 | 1009.8 |
| 20260510102540 | 70 | 66 | 2.6 | 5.2 | 0.00 | 0.24 | 0.00 | 84 | 1009.6 |
| 20260510102040 | 70 | 50 | 1.7 | 3.5 | 0.00 | 0.24 | 0.00 | 84 | 1009.5 |
| 20260510101600 | 70 | 66 | 1.7 | 3.5 | 0.00 | 0.24 | 0.00 | 84 | 1009.5 |
| 20260510101040 | 70 | 86 | 1.7 | 4.3 | 0.00 | 0.24 | 0.00 | 84 | 1009.5 |
| 20260510100539 | 71 | 69 | 1.7 | 4.3 | 0.00 | 0.24 | 0.00 | 83 | 1009.5 |
| 20260510100053 | 71 | 82 | 2.6 | 6.1 | 0.00 | 0.24 | 0.00 | 83 | 1009.4 |
| 20260510095539 | 71 | 121 | 3.5 | 7.8 | 0.00 | 0.24 | 0.00 | 83 | 1009.4 |
| 20260510095042 | 71 | 129 | 6.1 | 7.8 | 0.00 | 0.24 | 0.00 | 82 | 1009.2 |
| 20260510094552 | 71 | 131 | 5.2 | 7.8 | 0.00 | 0.24 | 0.00 | 83 | 1009.3 |
| 20260510094043 | 71 | 114 | 4.3 | 5.2 | 0.00 | 0.24 | 0.00 | 82 | 1009.4 |
| 20260510093540 | 72 | 116 | 1.7 | 3.5 | 0.00 | 0.24 | 0.00 | 81 | 1009.3 |
| 20260510093048 | 72 | 97 | 1.7 | 2.6 | 0.00 | 0.24 | 0.00 | 81 | 1009.3 |
| 20260510092540 | 71 | 111 | 1.7 | 2.6 | 0.00 | 0.24 | 0.00 | 82 | 1009.3 |
| 20260510092040 | 72 | 85 | 0.9 | 2.6 | 0.00 | 0.24 | 0.00 | 81 | 1009.3 |
| 20260510091543 | 71 | 87 | 1.7 | 2.6 | 0.00 | 0.24 | 0.00 | 82 | 1009.2 |
| 20260510091039 | 72 | 81 | 0.9 | 2.6 | 0.00 | 0.24 | 0.00 | 82 | 1009.3 |
| 20260510090539 | 72 | 0 | 2.6 | 2.6 | 0.00 | 0.24 | 0.00 | 81 | 1009.1 |
| 20260510090050 | 72 | 116 | 0.9 | 2.6 | 0.00 | 0.24 | 0.00 | 81 | 1009.1 |
| 20260510085540 | 72 | 82 | 0.0 | 1.7 | 0.00 | 0.24 | 0.00 | 81 | 1009.1 |
| 20260510085040 | 72 | 0 | 0.0 | 1.7 | 0.00 | 0.24 | 0.00 | 80 | 1009.1 |
| 20260510084601 | 73 | 0 | 0.0 | 3.5 | 0.00 | 0.24 | 0.00 | 80 | 1009.1 |
| 20260510084039 | 73 | 108 | 0.9 | 5.2 | 0.00 | 0.24 | 0.00 | 79 | 1009.1 |
| 20260510083539 | 73 | 122 | 2.6 | 5.2 | 0.00 | 0.24 | 0.00 | 79 | 1009.0 |
| 20260510083047 | 73 | 125 | 3.5 | 5.2 | 0.00 | 0.24 | 0.00 | 80 | 1009.1 |
| 20260510082538 | 73 | 113 | 3.5 | 6.1 | 0.00 | 0.24 | 0.00 | 80 | 1009.0 |
| 20260510082039 | 73 | 100 | 3.5 | 6.1 | 0.00 | 0.24 | 0.00 | 80 | 1009.0 |
| 20260510081607 | 73 | 124 | 4.3 | 6.1 | 0.00 | 0.24 | 0.00 | 80 | 1009.1 |
| 20260510081040 | 73 | 128 | 3.5 | 6.1 | 0.00 | 0.24 | 0.00 | 79 | 1009.1 |
| 20260510080540 | 73 | 136 | 2.6 | 4.3 | 0.00 | 0.24 | 0.00 | 79 | 1009.0 |
| 20260510080057 | 73 | 0 | 0.9 | 2.6 | 0.00 | 0.24 | 0.00 | 79 | 1008.9 |
| 20260510075539 | 74 | 86 | 0.0 | 2.6 | 0.00 | 0.24 | 0.00 | 78 | 1008.9 |
| 20260510075039 | 74 | 126 | 0.9 | 2.6 | 0.00 | 0.24 | 0.00 | 79 | 1008.9 |
| 20260510074552 | 74 | 117 | 0.9 | 1.7 | 0.00 | 0.24 | 0.00 | 79 | 1008.8 |
| 20260510074040 | 74 | 0 | 0.0 | 2.6 | 0.00 | 0.24 | 0.00 | 78 | 1008.9 |
| 20260510073539 | 74 | 72 | 0.0 | 2.6 | 0.00 | 0.24 | 0.00 | 78 | 1008.8 |
| 20260510073050 | 74 | 0 | 0.9 | 2.6 | 0.00 | 0.24 | 0.00 | 77 | 1008.8 |
| 20260510072539 | 74 | 129 | 0.0 | 2.6 | 0.00 | 0.24 | 0.00 | 77 | 1008.9 |
| 20260510072039 | 74 | 91 | 0.9 | 2.6 | 0.00 | 0.24 | 0.00 | 77 | 1009.0 |
| 20260510071548 | 74 | 201 | 0.9 | 2.6 | 0.00 | 0.24 | 0.00 | 77 | 1009.0 |
| 20260510071039 | 74 | 131 | 0.0 | 3.5 | 0.00 | 0.24 | 0.00 | 77 | 1009.1 |
| 20260510070540 | 75 | 0 | 0.9 | 4.3 | 0.00 | 0.24 | 0.00 | 76 | 1009.2 |
| 20260510065540 | 75 | 110 | 0.9 | 6.1 | 0.00 | 0.24 | 0.00 | 76 | 1009.0 |
| 20260510065039 | 75 | 94 | 2.6 | 7.0 | 0.00 | 0.24 | 0.00 | 76 | 1009.1 |
| 20260510064549 | 75 | 131 | 4.3 | 7.8 | 0.00 | 0.24 | 0.00 | 76 | 1009.1 |
| 20260510064039 | 76 | 83 | 3.5 | 7.8 | 0.00 | 0.24 | 0.00 | 76 | 1009.2 |
| 20260510063540 | 76 | 125 | 5.2 | 7.0 | 0.00 | 0.24 | 0.00 | 76 | 1009.3 |
| 20260510063047 | 76 | 127 | 4.3 | 7.0 | 0.00 | 0.24 | 0.00 | 76 | 1009.2 |
| 20260510062539 | 76 | 138 | 4.3 | 7.0 | 0.00 | 0.24 | 0.00 | 76 | 1009.2 |
| 20260510062039 | 76 | 139 | 3.5 | 6.1 | 0.00 | 0.24 | 0.00 | 75 | 1009.2 |
| 20260510061546 | 76 | 129 | 4.3 | 6.1 | 0.00 | 0.24 | 0.00 | 75 | 1009.2 |
| 20260510061039 | 76 | 113 | 4.3 | 7.8 | 0.00 | 0.24 | 0.00 | 75 | 1009.3 |
| 20260510060540 | 76 | 127 | 4.3 | 7.8 | 0.00 | 0.24 | 0.00 | 75 | 1009.2 |
| 20260510060049 | 76 | 127 | 4.3 | 7.8 | 0.00 | 0.24 | 0.00 | 74 | 1009.2 |
| 20260510055541 | 77 | 111 | 4.3 | 7.8 | 0.00 | 0.24 | 0.00 | 74 | 1009.2 |
| 20260510055040 | 77 | 137 | 1.7 | 7.8 | 0.00 | 0.24 | 0.00 | 73 | 1009.2 |
| 20260510054543 | 77 | 129 | 4.3 | 7.8 | 0.00 | 0.24 | 0.00 | 74 | 1009.1 |
| 20260510054040 | 77 | 135 | 3.5 | 7.0 | 0.00 | 0.24 | 0.00 | 74 | 1008.9 |
| 20260510053540 | 77 | 96 | 2.6 | 6.1 | 0.00 | 0.24 | 0.00 | 74 | 1008.8 |
| 20260510053052 | 77 | 188 | 2.6 | 7.0 | 0.00 | 0.24 | 0.00 | 74 | 1008.7 |
| 20260510052543 | 77 | 45 | 3.5 | 7.0 | 0.00 | 0.24 | 0.00 | 75 | 1008.7 |
| 20260510052039 | 77 | 122 | 3.5 | 7.8 | 0.00 | 0.24 | 0.00 | 75 | 1008.6 |
| 20260510051603 | 77 | 153 | 4.3 | 7.8 | 0.00 | 0.24 | 0.00 | 75 | 1008.7 |
| 20260510051039 | 77 | 141 | 2.6 | 7.0 | 0.00 | 0.24 | 0.00 | 75 | 1008.6 |
| 20260510050541 | 77 | 116 | 4.3 | 7.0 | 0.00 | 0.24 | 0.00 | 75 | 1008.6 |
| 20260510050105 | 78 | 127 | 3.5 | 7.0 | 0.00 | 0.24 | 0.00 | 74 | 1008.6 |
| 20260510045540 | 78 | 100 | 3.5 | 7.8 | 0.00 | 0.24 | 0.24 | 74 | 1008.5 |
| 20260510045040 | 78 | 100 | 3.5 | 7.8 | 0.00 | 0.24 | 0.24 | 74 | 1008.5 |
| 20260510044549 | 78 | 122 | 3.5 | 7.8 | 0.00 | 0.24 | 0.24 | 74 | 1008.5 |
| 20260510044040 | 78 | 138 | 3.5 | 7.8 | 0.00 | 0.24 | 0.24 | 73 | 1008.5 |
| 20260510043540 | 78 | 147 | 3.5 | 7.8 | 0.00 | 0.24 | 0.24 | 73 | 1008.5 |
| 20260510043048 | 78 | 131 | 5.2 | 11.3 | 0.00 | 0.24 | 0.24 | 73 | 1008.6 |
| 20260510042539 | 79 | 138 | 5.2 | 11.3 | 0.00 | 0.24 | 0.24 | 73 | 1008.5 |
| 20260510042039 | 79 | 169 | 6.1 | 10.4 | 0.00 | 0.24 | 0.24 | 73 | 1008.5 |
| 20260510041551 | 79 | 152 | 5.2 | 10.4 | 0.00 | 0.24 | 0.24 | 72 | 1008.5 |
| 20260510041039 | 80 | 132 | 6.1 | 10.4 | 0.00 | 0.24 | 0.24 | 71 | 1008.5 |
| 20260510040540 | 80 | 123 | 7.0 | 9.6 | 0.00 | 0.24 | 0.24 | 71 | 1008.5 |
| 20260510040055 | 80 | 133 | 6.1 | 8.7 | 0.00 | 0.24 | 0.24 | 70 | 1008.5 |
| 20260510035540 | 80 | 95 | 6.1 | 8.7 | 0.00 | 0.24 | 0.24 | 70 | 1008.2 |
| 20260510035040 | 80 | 139 | 5.2 | 8.7 | 0.00 | 0.24 | 0.24 | 69 | 1008.2 |
| 20260510034547 | 81 | 122 | 6.1 | 10.4 | 0.00 | 0.24 | 0.24 | 69 | 1008.3 |
| 20260510034040 | 81 | 143 | 6.1 | 10.4 | 0.00 | 0.24 | 0.24 | 69 | 1008.2 |
| 20260510033542 | 81 | 156 | 6.1 | 10.4 | 0.00 | 0.24 | 0.24 | 69 | 1008.2 |
| 20260510033055 | 81 | 127 | 5.2 | 13.0 | 0.00 | 0.24 | 0.24 | 69 | 1008.1 |
| 20260510032539 | 81 | 131 | 7.0 | 13.0 | 0.00 | 0.24 | 0.24 | 68 | 1008.1 |
| 20260510032040 | 81 | 100 | 7.0 | 11.3 | 0.00 | 0.24 | 0.24 | 68 | 1008.1 |
| 20260510031552 | 81 | 131 | 6.1 | 10.4 | 0.00 | 0.24 | 0.24 | 68 | 1008.0 |
| 20260510031037 | 81 | 79 | 6.1 | 10.4 | 0.00 | 0.24 | 0.24 | 67 | 1008.0 |
| 20260510030539 | 81 | 166 | 5.2 | 9.6 | 0.00 | 0.24 | 0.24 | 68 | 1007.9 |
| 20260510030100 | 82 | 80 | 5.2 | 10.4 | 0.00 | 0.24 | 0.24 | 67 | 1007.7 |
| 20260510025540 | 82 | 131 | 6.1 | 10.4 | 0.00 | 0.24 | 0.24 | 67 | 1007.7 |
| 20260510025040 | 82 | 122 | 6.1 | 10.4 | 0.00 | 0.24 | 0.24 | 67 | 1007.7 |
| 20260510024544 | 82 | 101 | 5.2 | 10.4 | 0.00 | 0.24 | 0.24 | 67 | 1007.6 |
| 20260510024041 | 82 | 156 | 5.2 | 9.6 | 0.00 | 0.24 | 0.24 | 67 | 1007.6 |
| 20260510023540 | 82 | 120 | 5.2 | 9.6 | 0.00 | 0.24 | 0.24 | 67 | 1007.5 |
| 20260510023048 | 82 | 98 | 5.2 | 9.6 | 0.00 | 0.24 | 0.24 | 67 | 1007.5 |
| 20260510022540 | 82 | 35 | 5.2 | 8.7 | 0.00 | 0.24 | 0.24 | 67 | 1007.4 |
| 20260510022039 | 82 | 113 | 5.2 | 9.6 | 0.00 | 0.24 | 0.24 | 67 | 1007.3 |
| 20260510021635 | 82 | 126 | 5.2 | 9.6 | 0.00 | 0.24 | 0.24 | 67 | 1007.3 |
| 20260510021039 | 83 | 108 | 5.2 | 10.4 | 0.00 | 0.24 | 0.24 | 67 | 1007.2 |
| 20260510020539 | 83 | 53 | 5.2 | 11.3 | 0.00 | 0.24 | 0.24 | 67 | 1007.2 |
| 20260510020046 | 83 | 66 | 6.1 | 11.3 | 0.00 | 0.24 | 0.24 | 67 | 1007.1 |
| 20260510015539 | 83 | 136 | 4.3 | 10.4 | 0.00 | 0.24 | 0.24 | 67 | 1006.9 |
| 20260510015039 | 83 | 105 | 7.0 | 10.4 | 0.00 | 0.24 | 0.24 | 67 | 1006.9 |
| 20260510014556 | 83 | 124 | 4.3 | 9.6 | 0.00 | 0.24 | 0.24 | 67 | 1006.9 |
| 20260510014039 | 84 | 147 | 6.1 | 9.6 | 0.00 | 0.24 | 0.24 | 65 | 1006.8 |
| 20260510013539 | 84 | 122 | 6.1 | 9.6 | 0.00 | 0.24 | 0.24 | 64 | 1006.7 |
| 20260510013057 | 84 | 101 | 5.2 | 7.0 | 0.00 | 0.24 | 0.24 | 64 | 1006.5 |
| 20260510012539 | 85 | 112 | 5.2 | 7.0 | 0.00 | 0.24 | 0.24 | 63 | 1006.5 |
| 20260510012040 | 85 | 101 | 4.3 | 6.1 | 0.00 | 0.24 | 0.24 | 62 | 1006.4 |
| 20260510011547 | 85 | 132 | 3.5 | 5.2 | 0.00 | 0.24 | 0.24 | 62 | 1006.4 |
| 20260510011040 | 86 | 120 | 2.6 | 5.2 | 0.00 | 0.24 | 0.24 | 61 | 1006.2 |
| 20260510010540 | 87 | 124 | 0.9 | 5.2 | 0.00 | 0.24 | 0.24 | 60 | 1006.2 |
| 20260510010056 | 87 | 113 | 2.6 | 5.2 | 0.00 | 0.24 | 0.24 | 59 | 1006.2 |
| 20260510005540 | 87 | 97 | 1.7 | 5.2 | 0.00 | 0.24 | 0.24 | 58 | 1006.1 |
| 20260510005040 | 88 | 141 | 0.0 | 3.5 | 0.00 | 0.24 | 0.24 | 57 | 1006.1 |
| 20260510004546 | 88 | 148 | 0.0 | 3.5 | 0.00 | 0.24 | 0.24 | 57 | 1006.1 |
| 20260510004039 | 89 | 0 | 0.9 | 4.3 | 0.00 | 0.24 | 0.24 | 56 | 1006.0 |
| 20260510003540 | 89 | 37 | 0.0 | 4.3 | 0.00 | 0.24 | 0.24 | 56 | 1005.9 |
| 20260510003044 | 89 | 101 | 0.9 | 4.3 | 0.00 | 0.24 | 0.24 | 56 | 1006.0 |
| 20260510002539 | 89 | 114 | 0.9 | 4.3 | 0.00 | 0.24 | 0.24 | 55 | 1005.8 |
| 20260510002040 | 89 | 89 | 0.0 | 5.2 | 0.00 | 0.24 | 0.24 | 55 | 1005.8 |
| 20260510001551 | 89 | 276 | 0.9 | 5.2 | 0.00 | 0.24 | 0.24 | 55 | 1005.9 |
| 20260510001040 | 89 | 259 | 2.6 | 5.2 | 0.00 | 0.24 | 0.24 | 56 | 1005.8 |
| 20260510000540 | 89 | 0 | 0.9 | 7.8 | 0.00 | 0.24 | 0.24 | 57 | 1005.8 |
| 20260510000050 | 88 | 82 | 3.5 | 9.6 | 0.00 | 0.24 | 0.24 | 57 | 1005.8 |
| 20260509235543 | 88 | 112 | 4.3 | 9.6 | 0.00 | 0.24 | 0.24 | 58 | 1006.0 |
| 20260509235039 | 89 | 128 | 4.3 | 9.6 | 0.00 | 0.24 | 0.24 | 58 | 1006.1 |
| 20260509234549 | 89 | 188 | 2.6 | 9.6 | 0.00 | 0.24 | 0.24 | 58 | 1006.1 |
| 20260509234041 | 89 | 118 | 4.3 | 9.6 | 0.00 | 0.24 | 0.24 | 58 | 1006.1 |
| 20260509233539 | 89 | 122 | 4.3 | 9.6 | 0.00 | 0.24 | 0.24 | 58 | 1006.1 |
| 20260509233053 | 89 | 130 | 5.2 | 10.4 | 0.00 | 0.24 | 0.24 | 57 | 1006.1 |
| 20260509232539 | 90 | 148 | 3.5 | 10.4 | 0.00 | 0.24 | 0.24 | 57 | 1006.0 |
| 20260509232039 | 91 | 153 | 4.3 | 10.4 | 0.00 | 0.24 | 0.24 | 55 | 1006.0 |
| 20260509231550 | 92 | 157 | 3.5 | 8.7 | 0.00 | 0.24 | 0.24 | 53 | 1005.8 |
| 20260509231040 | 92 | 213 | 0.9 | 5.2 | 0.00 | 0.24 | 0.24 | 51 | 1005.8 |
| 20260509230540 | 92 | 264 | 0.9 | 5.2 | 0.00 | 0.24 | 0.24 | 53 | 1005.8 |
| 20260509230050 | 92 | 96 | 0.9 | 5.2 | 0.00 | 0.24 | 0.24 | 52 | 1005.8 |
| 20260509225540 | 92 | 0 | 1.7 | 5.2 | 0.00 | 0.24 | 0.24 | 52 | 1005.8 |
| 20260509225039 | 93 | 131 | 1.7 | 4.3 | 0.00 | 0.24 | 0.24 | 52 | 1005.8 |
| 20260509224549 | 93 | 184 | 0.0 | 3.5 | 0.00 | 0.24 | 0.24 | 52 | 1005.7 |
| 20260509224039 | 93 | 100 | 0.9 | 3.5 | 0.00 | 0.24 | 0.24 | 52 | 1005.8 |
| 20260509223540 | 92 | 134 | 0.9 | 6.1 | 0.00 | 0.24 | 0.24 | 53 | 1005.8 |
| 20260509223052 | 92 | 114 | 0.9 | 6.1 | 0.00 | 0.24 | 0.24 | 52 | 1005.9 |
| 20260509222539 | 93 | 180 | 0.9 | 3.5 | 0.00 | 0.24 | 0.24 | 52 | 1005.9 |
| 20260509222040 | 93 | 199 | 0.9 | 6.1 | 0.00 | 0.24 | 0.24 | 53 | 1006.0 |
| 20260509221550 | 92 | 0 | 0.0 | 6.1 | 0.00 | 0.24 | 0.24 | 52 | 1006.0 |
| 20260509221040 | 92 | 118 | 1.7 | 6.1 | 0.00 | 0.24 | 0.24 | 52 | 1006.0 |
| 20260509220539 | 93 | 117 | 0.9 | 3.5 | 0.00 | 0.24 | 0.24 | 52 | 1006.0 |
| 20260509220052 | 94 | 153 | 0.0 | 4.3 | 0.00 | 0.24 | 0.24 | 51 | 1005.8 |
| 20260509215541 | 93 | 134 | 0.9 | 4.3 | 0.00 | 0.24 | 0.24 | 51 | 1005.8 |
| 20260509215040 | 94 | 243 | 0.9 | 4.3 | 0.00 | 0.24 | 0.24 | 51 | 1006.0 |
| 20260509214550 | 94 | 0 | 0.9 | 6.1 | 0.00 | 0.24 | 0.24 | 52 | 1006.0 |
| 20260509214039 | 94 | 115 | 0.9 | 6.1 | 0.00 | 0.24 | 0.24 | 51 | 1005.9 |
| 20260509213539 | 94 | 299 | 0.9 | 3.5 | 0.00 | 0.24 | 0.24 | 51 | 1006.0 |
| 20260509213105 | 93 | 0 | 0.0 | 5.2 | 0.00 | 0.24 | 0.24 | 53 | 1006.0 |
| 20260509212540 | 93 | 352 | 0.9 | 5.2 | 0.00 | 0.24 | 0.24 | 52 | 1006.0 |
| 20260509212040 | 92 | 229 | 0.9 | 4.3 | 0.00 | 0.24 | 0.24 | 53 | 1006.2 |
| 20260509211601 | 92 | 293 | 0.9 | 4.3 | 0.00 | 0.24 | 0.24 | 55 | 1006.2 |
| 20260509211040 | 92 | 20 | 0.9 | 7.8 | 0.00 | 0.24 | 0.24 | 55 | 1006.3 |
| 20260509210544 | 92 | 170 | 1.7 | 7.8 | 0.00 | 0.24 | 0.24 | 55 | 1006.3 |
| 20260509210050 | 93 | 243 | 1.7 | 7.8 | 0.00 | 0.24 | 0.24 | 55 | 1006.4 |
| 20260509205539 | 94 | 323 | 0.0 | 5.2 | 0.00 | 0.24 | 0.24 | 54 | 1006.5 |
| 20260509205040 | 93 | 61 | 0.0 | 3.5 | 0.00 | 0.24 | 0.24 | 54 | 1006.6 |
| 20260509204555 | 94 | 340 | 0.9 | 6.1 | 0.00 | 0.24 | 0.24 | 55 | 1006.8 |
| 20260509204040 | 93 | 321 | 0.0 | 6.1 | 0.00 | 0.24 | 0.24 | 55 | 1006.8 |
| 20260509203542 | 92 | 300 | 0.9 | 5.2 | 0.00 | 0.24 | 0.24 | 53 | 1007.0 |
| 20260509203048 | 92 | 0 | 0.9 | 4.3 | 0.00 | 0.24 | 0.24 | 55 | 1007.0 |
| 20260509202541 | 90 | 110 | 0.9 | 6.1 | 0.00 | 0.24 | 0.24 | 58 | 1007.1 |
| 20260509202039 | 89 | 6 | 1.7 | 7.0 | 0.00 | 0.24 | 0.24 | 57 | 1007.3 |
| 20260509201548 | 90 | 288 | 2.6 | 7.0 | 0.00 | 0.24 | 0.24 | 56 | 1007.4 |
| 20260509201039 | 91 | 351 | 2.6 | 6.1 | 0.00 | 0.24 | 0.24 | 57 | 1007.4 |
| 20260509200541 | 92 | 23 | 0.9 | 6.1 | 0.00 | 0.24 | 0.24 | 55 | 1007.5 |
| 20260509200052 | 91 | 52 | 0.9 | 6.1 | 0.00 | 0.24 | 0.24 | 57 | 1007.6 |
| 20260509195539 | 90 | 0 | 0.9 | 3.5 | 0.00 | 0.24 | 0.24 | 59 | 1007.7 |
| 20260509195039 | 88 | 0 | 0.0 | 5.2 | 0.00 | 0.24 | 0.24 | 61 | 1007.7 |
| 20260509194556 | 87 | 0 | 0.0 | 6.1 | 0.00 | 0.24 | 0.24 | 63 | 1007.9 |
| 20260509194040 | 87 | 283 | 3.5 | 7.0 | 0.00 | 0.24 | 0.24 | 62 | 1007.9 |
| 20260509193539 | 87 | 309 | 1.7 | 7.0 | 0.00 | 0.24 | 0.24 | 62 | 1007.9 |
| 20260509193051 | 87 | 297 | 2.6 | 7.0 | 0.00 | 0.24 | 0.24 | 62 | 1008.0 |